Regional Weather Roundup
Issued by NWS Newport/Morehead, NC

Current Version | Previous Version | Graphics & Text | Print | Product List | Glossary On
Versions: 1 2 3 4 5 6 7 8 9 10 11 12 13 14 15 16 17 18 19 20 21 22 23 24 25 26 27 28 29 30 31 32 33 34 35 36 37 38 39 40 41 42 43 44 45 46 47 48 49 50
129 ASUS42 KMHX 272325 RWRMHX WEATHER ROUNDUP FOR EASTERN NORTH CAROLINA NATIONAL WEATHER SERVICE NEWPORT/MOREHEAD CITY NC 700 PM EDT WED JUL 27 2016 NOTE: "FAIR" INDICATES FEW OR NO CLOUDS BELOW 12,000 FEET WITH NO SIGNIFICANT WEATHER AND/OR OBSTRUCTIONS TO VISIBILITY NCZ015>017-031-032-045>047-102-103-280000- NORTH COAST CITY SKY/WX TMP DP RH WIND PRES REMARKS EDENTON CLOUDY 95 74 51 NW3 29.91R HX 105 ELIZABETH CITY MOSUNNY 93 76 57 E3 29.90R HX 105 KITTY HAWK CLOUDY 90 76 62 SE6 29.90R HX 101 MANTEO N/A 87 82 84 S5 29.90S HX 105 $$ NCZ045>047-081-094-103-104-280000- CENTRAL COAST CITY SKY/WX TMP DP RH WIND PRES REMARKS FRISCO SUNNY 84 78 82 W8 29.92R $$ NCZ095-097-098-100-101-280000- SOUTHERN COAST CITY SKY/WX TMP DP RH WIND PRES REMARKS BEAUFORT SUNNY 86 80 82 SW14 29.92R HX 101 CEDAR ISLAND NOT AVBL JACKSONVILLE SUNNY 90 79 70 S8 29.90F HX 106 PINEY ISLAND CLEAR N/A N/A N/A SW12 29.90 WILMINGTON SUNNY 90 76 63 SW14 29.93S HX 101 $$ NCZ011>013-027>030-043-044-078>080-089-090>093-098-280000- COASTAL PLAIN CITY SKY/WX TMP DP RH WIND PRES REMARKS AHOSKIE SUNNY 85 81 87 CALM 29.90F HX 101 CLINTON SUNNY 95 75 51 SW3 29.91S HX 106 ELIZABETHTOWN SUNNY 95 73 48 SW7 29.92S HX 103 GOLDSBORO MOSUNNY 95 72 47 W5 29.88F HX 104 GREENVILLE MOSUNNY 91 81 70 CALM 29.93S HX 110 HAVELOCK CLOUDY 89 77 67 SW12 29.91S HX 101 KENANSVILLE NOT AVBL KINSTON MOSUNNY 91 77 62 N3 29.91S HX 105 NEW BERN MOSUNNY 93 76 57 S5 29.91S HX 105 RICHLANDS PTSUNNY 93 76 57 SW6 29.91S HX 105 ROCKY MOUNT CLOUDY 92 79 65 SW3 29.91S HX 108 WASHINGTON CLOUDY 81 76 85 CALM 29.90F WHITEVILLE SUNNY 92 74 54 CALM 29.92F HX 102 $$ AMZ130-135-150-152-154-156-158-170-250-252-270-ANZ085-086-088-633-658-670-280000- MARINE OBSERVATIONS STATION/POSITION TIME TEMP WIND PRES WAVE SWELL AIR SEA DIR/SP/G HT/PER HT/PER (UTC) (F) (DEG/KT/KT) (MB) (FT/S) (FT/S) CHESAPEAKE LIGHT NOT AVBL 64 E VA BEACH 2250 83 84 120/ 4/ 4 1012.4 2/ 6 2/ 6 DUCK 2200 69 N/A 2 E DUCK 2211 77 N/A 1/ 5 OREGON INLET 2200 83 N/A 13E OREGON INLT 2300 84 N/A 2/ 6 2/ 6 HATTERAS CG 2200 84 N/A DIAMOND BUOY 2250 86 85 240/ 10/ 12 1013.0 3/ 6 2/ 6 CAPE LOOKOUT 2300 85 220/ 13/ 17 1012.6 BEAUFORT LAB 2200 83 N/A 30 SE NEW RVR IN 2308 86 85 230/ 17/ 23 1013.2 30 SE NEW RVR IN 2225 85 N/A 4/ 5 27 SE WRIGHTSVLE 2308 85 84 230/ 17/ 21 1013.9 5 SE WRIGHTSVLE 2308 84 81 230/ 14/ 19 1014.4 225 S CAPE HAT 2250 85 85 230/ 10/ 12 1016.1 4/ 6 3/ 6 41 SE CHARLESTON 2250 86 87 220/ 16/ 17 1014.6 3/ 5 2/ 7 $$

USA.gov is the U.S. government's official web portal to all federal, state and local government web resources and services.